Regional Weather Roundup
Issued by NWS Lake Charles, LA

Home | Current Version | Previous Version | Text Only | Print | Product List | Glossary On
Versions: 1 2 3 4 5 6 7 8 9 10 11 12 13 14 15 16 17 18 19 20 21 22 23 24 25 26 27 28 29 30 31 32 33 34 35 36 37 38 39 40 41 42 43 44 45 46 47 48 49 50
000
ASUS44 KLCH 042210
RWRLCH
RWRLCH
REGIONAL WEATHER ROUNDUP
NATIONAL WEATHER SERVICE LAKE CHARLES LA
500 PM CDT SAT JUL 04 2015

Note: "fair" indicates few or no clouds below 12,000 feet with no
significant weather and/or obstructions to visibility.


ACROSS SOUTHEAST TEXAS

CITY           SKY/WX    TMP DP  RH WIND       PRES   REMARKS
BEAUMONT       CLOUDY    85  76  74 S12       30.01R
BEAUMONT CITY    N/A     86  75  71 S12G20    30.01S
ORANGE         CLOUDY    85  72  63 S9G17     30.03R
JASPER         PTSUNNY   82  73  76 S8        30.02F
$$

ACROSS CENTRAL LOUISIANA

CITY           SKY/WX    TMP DP  RH WIND       PRES   REMARKS
LEESVILLE      HVY RAIN  73  72  94 SW8       30.06R VSB 5/8
FULLERTON      TSTM      76  70  82 VRB6      30.02R
ALEXANDRIA INT CLOUDY    76  73  91 NE6       30.00F
ESLER FIELD    CLOUDY    76  72  87 VRB3      30.03F
DERIDDER       CLOUDY    74  72  91 SW6       30.06R
OAKDALE        CLOUDY    81  75  81 SW6       30.03R
OPELOUSAS        N/A    N/A N/A N/A SE3       30.03F
$$

ACROSS SOUTHWEST AND SOUTH CENTRAL LOUISIANA

CITY           SKY/WX    TMP DP  RH WIND       PRES   REMARKS
SULPHUR        CLOUDY    86  74  68 S8        30.04R
LAKE CHARLES   CLOUDY    85  76  74 S8        30.03R
CHENNAULT INT  PTSUNNY   82  77  83 CALM      30.04R
CAMERON PHI    CLEAR     84  77  79 SW12      30.05R
DEQUINCY         N/A     76  76 100 CALM      30.03R
JENNINGS         N/A     78  73  84 SE5       30.04R
LAFAYETTE      CLOUDY    73  71  93 E3        30.04S
NEW IBERIA     NOT AVBL
ABBEVILLE        N/A     75  73  95 E3        30.03F
PATTERSON      CLOUDY    82  75  78 N6        30.06R
SALT POINT       N/A     86  76  71 VRB5      30.03R
$$

SELECTED SITES ACROSS THE REGION

CITY           SKY/WX    TMP DP  RH WIND       PRES   REMARKS
HOUSTON BUSH   PTSUNNY   87  76  69 S13       29.98S
HOUSTON HOBBY  CLOUDY    86  77  74 S8        29.98F
GALVESTON      CLOUDY    87  78  74 S13       30.01F HX 100
COLLEGE STAT   MOSUNNY   90  72  55 S14       29.97F
CONROE         PTSUNNY   86  72  62 S3        29.97F
HUNTSVILLE     MOSUNNY   90  71  53 SW15G24   29.98S
LUFKIN         PTSUNNY   93  72  50 SW10      29.96S HX 101
SHREVEPORT     TSTM      71  68  90 NE14      30.02F FOG
MONROE         LGT RAIN  82  68  62 W8        30.01S
NATCHEZ MS     CLOUDY    72  68  88 E5        30.07F
BATON ROUGE    LGT RAIN  76  72  87 CALM      30.06R
N.O. INTL ARPT CLOUDY    84  71  65 NW8       30.06R
SLIDELL        CLOUDY    81  72  74 VRB5      30.05R
$$

MARINE REPORTS

STATION/POSITION TIME  TEMP    WIND        PRES    VSBY  WAVE
                       AIR SEA DIR/SP/G                  HT/PER
                 (UTC) (F)     (DEG/KT/KT) (MB)    (MI)  (FT/S)
BUOY 30 S HIGH I 2150   85 85  190/ 14/ 16 1015.6F         3/ 6
SEA RIM ST PARK  2100   85     180/ 15/ 17 1016.9S
PORT ARTHUR      2100      84  190/  9/ 13 1016.4R
SABINE PASS N    2100   85 85  200/ 12/ 16 1016.5S
TEXAS POINT      NOT AVBL
CALCASIEU PASS   2100   84 85  210/ 16/ 18   N/A
LK CHARLES BEACH 2100   82 86                N/A
MARSH ISLAND     NOT AVBL
FRESH WATER LOCK 2100   85 85  190/  8/ 10 1016.9F
AMERADA PASS     2100   85 85  210/  2/  6 1016.9F
$$


USA.gov is the U.S. government's official web portal to all federal, state and local government web resources and services.